CAPE
0 0 0 0 0 0 0 0 0 0 0 0 0 0 0 0 0 0 0 0 0 0 0 0 0 0 0 0 0 0 0 0 0 0 0 0 0 0 0 0 0 0 0 0
0 0 0 0 0 1 0 0 0 0 0 0 0 0 0 0 0 0 0 0 0 0 0 0 0 0 0 0 0 0 0 0 0 0 0 0 0 0 0 0 0 0 0 0
0 0 0 0 0 0 0 0 0 0 0 0 0 0 0 0 0 0 0 0 0 0 0 0 0 0 0 0 0 0 0 0 0 0 0 0 0 0 0 0 0 0 0 78
0 0 0 0 0 0 0 0 0 0 0 0 0 0 0 0 0 0 0 0 0 0 0 0 0 0 0 0 0 0 0 0 0 0 0 0 0 0 0 87 27 0 0 261
0 0 0 0 0 0 0 0 0 0 0 0 0 0 0 0 0 0 0 0 0 0 0 0 0 0 0 0 0 0 0 0 0 0 0 0 0 0 82 306 157 183 1 401
0 0 0 0 0 0 0 0 0 0 0 0 0 0 0 0 0 0 0 0 0 0 0 0 0 0 0 0 0 0 0 0 0 0 0 0 0 7 204 611 552 382 353 313
0 0 0 0 0 0 0 0 0 0 0 0 0 0 0 0 0 0 0 0 0 0 0 0 0 0 0 0 0 0 0 0 0 0 0 0 2 1 188 350 410 511 475 530
0 0 0 0 0 0 0 0 0 0 0 0 0 0 0 0 0 0 0 0 0 0 0 0 0 0 0 0 0 0 0 0 0 0 0 2 53 55 89 77 451 264 284 445
0 0 0 0 0 0 0 0 0 0 0 0 0 0 0 0 0 0 0 0 0 0 0 0 0 0 0 0 0 0 0 0 0 0 0 0 14 225 308 272 231 142 144 94
0 0 0 0 0 0 0 0 0 0 0 0 0 0 0 0 0 0 0 0 0 0 0 0 0 0 0 0 0 0 0 0 0 0 0 0 81 159 175 21 33 97 172 19
0 0 0 0 0 0 0 0 0 0 0 0 0 0 0 0 0 0 0 0 0 0 0 0 0 0 0 0 0 0 0 0 0 0 0 0 12 94 203 6 9 284 207 30
0 0 0 0 0 0 0 0 0 0 0 0 0 0 0 0 0 0 0 0 0 0 0 0 0 0 0 0 0 0 0 0 0 0 0 4 0 0 0 1 0 24 69 57
0 0 0 0 0 0 0 0 0 0 0 0 0 0 0 0 0 0 0 0 0 0 0 0 0 0 0 0 0 0 0 0 0 0 0 0 0 0 4 2 0 1 100 135
0 0 0 0 0 0 0 0 0 0 0 0 0 0 0 0 0 0 0 0 0 0 0 0 0 0 0 0 0 0 0 0 0 0 0 0 0 4 63 1 10 12 2 6
0 0 0 0 0 0 0 0 0 0 0 0 0 0 0 0 0 0 0 0 0 0 0 0 0 0 0 0 0 0 0 0 0 0 0 22 30 88 14 2 0 1 32 0
2 0 0 0 0 0 0 0 0 0 0 0 0 0 0 0 0 0 0 0 0 0 0 0 0 0 0 0 0 0 6 15 6 1 8 12 27 71 95 80 43 0 22 14
0 1 0 0 0 0 0 0 0 0 0 0 0 0 0 0 0 0 0 0 0 0 0 0 0 0 0 0 0 0 0 3 12 0 0 0 1 17 16 73 24 172 417 446
0 0 0 0 0 0 0 0 0 0 0 0 0 0 0 0 0 0 0 0 0 0 0 0 0 0 0 0 0 0 0 8 10 0 0 0 2 208 489 545 565 517 484 717
1 0 0 0 0 0 0 0 0 0 0 0 0 0 0 0 0 0 0 0 0 0 0 0 0 0 0 0 0 0 0 15 21 14 0 0 109 216 351 315 653 700 881 1111
0 0 0 0 0 0 0 0 0 2 0 0 1 0 0 0 0 0 0 0 0 0 0 0 0 0 0 0 0 0 0 20 17 37 41 3 122 167 234 280 495 970 1025 1334
0 0 0 0 0 0 1 1 1 0 1 0 0 0 0 0 0 0 0 0 0 0 0 0 0 0 0 0 0 0 0 4 110 95 148 117 75 70 63 168 314 866 783 1199
0 0 1 6 2 0 1 0 1 2 0 0 0 0 0 0 0 0 0 0 0 0 0 4 0 4 14 0 0 0 0 0 137 128 60 14 6 12 4 33 178 233 757 1205
0 0 10 9 5 18 10 0 0 0 0 0 0 0 0 0 0 0 0 0 0 0 0 0 0 93 32 27 31 30 68 58 11 0 0 0 0 0 0 0 0 0 10 807
2 2 2 4 2 0 0 0 0 0 0 0 0 3 6 0 0 0 0 0 0 0 0 3 49 54 31 39 40 53 28 5 0 0 0 1 0 0 0 0 0 0 0 211
2 12 1 0 0 0 0 0 0 0 0 6 15 28 15 1 9 17 1 2 1 10 19 48 61 51 40 13 0 0 0 0 0 0 0 0 0 0 0 0 0 0 0 0
2 4 0 0 0 0 0 0 0 0 5 19 15 15 4 15 2 9 2 12 17 22 4 0 12 24 32 52 38 16 9 14 9 2 0 0 0 4 0 0 0 0 0 0
3 0 0 0 0 0 0 0 11 17 23 36 37 5 9 5 17 4 0 3 0 0 0 0 0 0 0 11 33 47 66 56 32 8 10 2 0 0 0 0 0 0 0 0
CIN
0 0 0 0 0 0 0 0 0 0 0 0 0 0 0 0 0 0 0 0 0 0 0 0 0 0 0 0 0 0 0 0 0 0 0 0 0 0 0 0 0 0 0 0
0 0 0 0 0 0 0 0 0 0 0 0 0 0 0 0 0 0 0 0 0 0 0 0 0 0 0 0 0 0 0 0 0 0 0 0 0 0 0 0 0 0 0 0
0 0 0 0 0 0 0 0 0 0 0 0 0 0 0 0 0 0 0 0 0 0 0 0 0 0 0 0 0 0 0 0 0 0 0 0 0 0 0 0 0 0 0 -54
0 0 0 0 0 0 0 0 0 0 0 0 0 0 0 0 0 0 0 0 0 0 0 0 0 0 0 0 0 0 0 0 0 0 0 0 0 0 0 -165 -149 0 0 -58
0 0 0 0 0 0 0 0 0 0 0 0 0 0 0 0 0 0 0 0 0 0 0 0 0 0 0 0 0 0 0 0 0 0 0 0 0 0 -167 -178 -166 -122 -2 -46
0 0 0 0 0 0 0 0 0 0 0 0 0 0 0 0 0 0 0 0 0 0 0 0 0 0 0 0 0 0 0 0 0 0 0 0 0 -189 -175 -166 -278 -271 -112 -335
0 0 0 0 0 0 0 0 0 0 0 0 0 0 0 0 0 0 0 0 0 0 0 0 0 0 0 0 0 0 0 0 0 0 0 0 -93 -17 -212 -214 -300 -362 -340 -410
0 0 0 0 0 0 0 0 0 0 0 0 0 0 0 0 0 0 0 0 0 0 0 0 0 0 0 0 0 0 0 0 0 0 0 -90 -134 -229 -231 -225 -207 -467 -490 -382
0 0 0 0 0 0 0 0 0 0 0 0 0 0 0 0 0 0 0 0 0 0 0 0 0 0 0 0 0 0 0 0 0 0 0 0 -113 -211 -284 -271 -154 -454 -540 -459
0 0 0 0 0 0 0 0 0 0 0 0 0 0 0 0 0 0 0 0 0 0 0 0 0 0 0 0 0 0 0 0 0 0 0 0 -161 -208 -236 -110 -131 -484 -449 -546
0 0 0 0 0 0 0 0 0 0 0 0 0 0 0 0 0 0 0 0 0 0 0 0 0 0 0 0 0 0 0 0 0 0 0 0 -213 -150 -49 -83 -406 -340 -354 -458
0 0 0 0 0 0 0 0 0 0 0 0 0 0 0 0 0 0 0 0 0 0 0 0 0 0 0 0 0 0 0 0 0 0 0 -52 0 0 0 -105 0 -281 -249 -349
-1 0 0 0 0 0 0 0 0 0 0 0 0 0 0 0 0 0 0 0 0 0 0 0 0 0 0 0 0 0 0 0 0 0 0 0 0 0 -117 -270 0 -58 -157 -220
0 0 0 0 0 0 0 0 0 0 0 0 0 0 0 0 0 0 0 0 0 0 0 0 0 0 0 0 0 0 0 0 0 0 0 0 0 -93 -186 -149 -257 -213 -107 -183
0 -1 0 0 0 0 0 0 0 0 0 0 0 0 0 0 0 0 0 0 0 0 0 0 0 0 0 0 0 0 -7 0 0 0 0 -79 -112 -130 -169 -58 0 -49 -92 0
0 0 0 0 0 0 0 0 0 0 0 0 0 0 0 0 0 0 0 0 0 0 0 0 0 0 0 0 0 0 -56 -70 -66 -42 -77 -85 -94 -112 -124 -159 -138 0 -131 -114
0 0 0 0 0 0 0 0 0 0 0 0 0 0 0 0 0 0 0 0 0 0 0 0 0 0 0 0 0 0 0 -47 -57 -3 0 0 -7 -43 -83 -99 -124 -94 -80 -52
0 0 0 0 0 0 0 0 0 0 0 0 0 0 0 0 0 0 0 0 0 0 0 0 0 0 0 0 0 0 0 -31 -56 0 0 0 -30 -45 -36 -35 -36 -23 -30 -42
-2 -2 0 0 0 0 0 0 0 0 0 0 -1 0 0 0 0 0 0 0 0 0 0 0 0 0 0 0 0 0 0 -28 -20 -39 0 0 -41 -30 -25 -35 -29 -27 -21 -20
-2 0 0 0 0 0 0 0 0 -5 -10 0 0 0 0 0 0 0 0 0 0 0 0 0 0 0 0 0 0 0 0 -32 -32 -18 -19 -6 -33 -31 -31 -48 -41 -17 -21 -34
0 0 0 0 0 0 -4 -1 -2 -3 0 0 0 0 0 0 0 0 0 0 0 0 0 -2 0 0 0 0 0 0 0 -34 -18 -21 -35 -35 -31 -57 -63 -55 -44 -34 -46 -42
0 0 -5 -7 -18 0 -5 -1 0 -2 0 0 0 0 0 0 0 0 0 0 0 0 0 -8 0 -16 -30 0 0 0 0 0 -30 -51 -40 -32 -27 -33 -31 -80 -83 -88 -66 -56
0 -3 -2 -3 -2 -1 -2 0 -1 0 0 0 0 0 0 0 0 0 0 0 0 0 0 -1 0 -35 -80 -51 -57 -61 -48 -38 -50 0 0 0 0 0 0 0 0 0 -77 -69
-9 -3 -2 -1 0 0 0 0 0 0 0 0 -2 -21 -16 0 0 0 0 0 -1 0 0 -4 -25 -59 -74 -61 -63 -39 -43 -59 0 0 -5 -14 0 0 0 0 0 0 0 -123
-8 -2 0 0 0 0 0 0 0 0 0 -55 -16 -16 -10 -19 -15 -20 -8 -8 -4 -7 -9 -25 -35 -47 -70 -82 -38 0 0 0 0 0 0 0 0 0 0 0 0 0 0 0
-10 -1 0 0 0 0 0 0 0 0 -57 -57 -42 -11 -63 -24 -7 -9 -8 -7 -9 -41 -100 0 -90 -68 -44 -45 -56 -61 -40 -67 -80 -46 0 0 0 -57 0 0 0 0 0 0
-2 0 0 0 0 0 0 0 -36 -42 -20 -5 -28 -11 -1 -10 -2 -5 0 -30 -7 0 0 0 0 0 0 -79 -44 -46 -36 -35 -35 -38 -41 -19 0 0 0 0 0 0 0 0
Wind_Speed
23 24 24 23 21 18 14 12 20 22 19 10 13 12 12 17 18 18 16 15 14 18 17 15 13 16 20 23 14 9 15 16 24 23 22 20 22 25 25 22 22 18 21 23
25 26 26 25 21 15 9 14 17 7 16 12 12 13 15 13 17 20 17 17 18 19 18 16 16 19 21 23 19 16 19 19 22 26 23 25 25 28 27 22 19 22 21 22
26 28 28 27 25 17 19 15 18 14 13 11 12 12 17 18 18 16 18 17 19 20 19 16 17 22 22 23 22 22 20 18 19 22 22 24 25 27 27 20 20 21 21 13
28 29 30 30 28 20 12 16 17 16 14 10 15 12 20 18 18 17 20 18 21 18 20 21 24 24 25 25 22 24 21 19 22 18 19 18 18 23 23 21 20 21 21 5
27 29 30 31 30 21 20 17 17 17 15 15 19 19 21 21 21 20 21 22 22 21 19 21 26 27 26 19 26 26 24 22 22 22 21 20 18 21 21 23 24 19 15 11
27 28 29 30 31 25 21 19 18 16 17 20 19 22 22 23 23 18 23 24 24 26 26 27 28 28 30 32 30 31 21 24 25 23 22 21 20 19 17 18 22 17 12 14
27 28 28 28 29 27 24 23 19 18 16 20 21 24 24 26 26 23 25 25 23 26 29 29 29 31 33 33 32 14 19 18 18 19 23 25 15 18 14 14 19 17 14 17
28 28 28 28 28 26 24 23 22 20 18 22 22 25 25 23 25 23 21 25 25 26 22 24 23 21 18 17 20 14 9 12 16 17 19 22 19 23 23 22 21 20 17 15
28 28 28 28 28 27 22 24 24 20 20 15 22 23 23 23 25 25 21 25 26 22 19 19 15 13 13 15 14 18 15 14 12 15 20 18 21 26 26 22 26 23 20 16
28 28 29 29 29 28 24 23 25 21 19 16 23 21 22 21 21 22 22 25 22 22 18 16 14 12 14 15 16 18 17 17 15 15 14 21 24 27 26 25 28 26 22 22
27 28 28 28 29 29 27 23 26 24 21 18 16 16 17 22 19 18 22 22 18 20 19 18 17 16 17 15 16 16 17 19 19 17 15 20 24 24 22 17 23 22 20 22
27 27 28 28 29 29 28 25 27 28 17 16 22 12 13 5 6 13 15 13 15 17 18 18 16 16 16 15 13 15 17 15 17 13 14 18 25 21 18 18 22 19 16 19
27 27 27 28 28 29 28 27 28 27 25 27 19 19 21 10 6 7 16 15 13 16 15 15 14 15 16 14 15 15 15 14 15 17 15 12 16 19 14 16 18 18 15 15
26 27 27 27 28 29 28 27 24 23 23 24 19 23 28 19 10 7 2 6 15 17 15 14 12 14 13 13 13 12 14 12 14 14 11 18 17 14 9 12 21 17 5 14
26 27 27 27 28 30 30 23 19 22 22 23 29 35 17 21 15 3 10 10 14 16 16 13 13 13 13 14 14 11 9 10 12 13 14 10 16 13 15 15 13 13 15 24
25 25 25 26 28 30 24 21 18 20 23 25 26 24 22 21 17 7 9 11 11 12 14 15 14 10 15 13 14 10 8 7 8 10 9 9 9 5 21 17 26 26 25 25
23 23 23 25 26 25 21 20 18 22 23 21 26 24 18 17 13 11 11 12 12 12 13 13 10 11 12 12 7 3 6 2 4 7 8 5 9 20 19 21 26 25 26 25
21 22 23 25 26 25 24 20 16 10 19 18 19 20 21 14 13 15 15 13 16 18 19 18 13 15 14 13 11 2 7 5 5 6 7 7 17 16 15 13 18 24 28 29
19 21 23 24 22 21 20 18 15 12 16 17 17 19 19 21 19 18 16 15 19 20 17 16 14 13 9 8 8 7 4 3 5 7 6 7 13 10 18 22 25 26 26 27
16 19 23 25 19 15 16 19 19 18 16 16 20 18 18 19 19 19 18 18 18 18 16 15 13 9 4 3 6 7 6 7 5 7 6 9 12 18 22 23 23 23 24 26
19 21 22 19 15 18 19 20 18 17 20 17 17 14 15 15 11 15 16 18 19 18 18 11 14 17 7 13 9 11 9 7 8 8 9 8 12 18 21 22 23 23 24 23
17 18 18 16 18 19 20 20 18 17 20 16 15 15 10 15 12 14 17 18 18 17 18 16 16 16 19 18 9 7 7 6 7 9 10 11 14 18 19 21 22 24 25 24
16 18 19 18 18 21 20 19 18 18 16 16 14 14 12 14 14 15 15 17 17 18 17 17 16 18 21 19 12 11 11 10 9 11 12 14 17 19 20 21 23 25 26 26
19 19 25 23 21 22 20 18 17 14 17 23 18 13 14 13 14 14 17 16 18 19 18 18 15 17 18 16 13 12 11 9 9 11 14 17 19 19 21 22 25 24 25 26
21 22 25 26 22 19 17 19 24 25 27 25 19 15 15 15 17 16 17 18 18 17 16 16 17 16 15 15 14 13 13 12 12 14 16 18 20 20 22 26 28 27 26 26
24 25 25 23 22 24 24 25 25 22 17 18 16 19 19 20 19 17 18 19 18 16 16 19 20 20 18 17 15 14 14 15 16 18 19 20 22 24 26 28 29 29 28 29
27 28 26 25 22 22 20 20 18 15 17 20 16 19 17 19 20 21 19 19 13 14 18 20 20 21 22 23 21 20 20 21 21 21 24 24 24 26 29 29 30 30 32 30
Wind_Direction
324 325 326 324 319 313 313 166 111 124 83 247 225 216 198 254 296 307 303 314 332 286 279 292 320 312 322 328 344 328 315 308 291 296 309 333 317 304 300 293 285 301 306 306
328 328 328 327 321 305 164 147 147 88 68 186 246 250 274 9 338 319 313 308 304 291 288 292 330 309 312 323 318 334 320 310 296 291 295 303 314 316 313 295 294 286 298 306
331 332 333 331 328 310 80 132 123 204 139 167 243 238 292 314 309 335 328 318 304 301 299 315 317 306 308 316 330 325 312 319 311 297 297 299 309 317 322 309 289 292 294 300
333 335 337 337 334 322 310 330 22 38 136 203 276 216 335 329 314 334 339 330 322 327 306 300 295 307 307 293 322 315 322 317 317 310 304 311 320 323 329 330 305 291 299 259
332 336 339 341 340 325 353 342 333 307 10 258 338 334 338 340 319 342 323 322 303 323 323 310 291 294 299 309 294 304 316 302 316 306 304 306 312 328 325 328 317 308 302 266
331 335 338 343 345 345 1 334 333 354 337 328 343 330 333 333 332 343 333 317 315 294 299 297 294 292 286 279 284 284 317 313 309 304 309 305 300 317 332 336 329 317 298 282
330 333 336 340 343 348 12 352 354 347 340 330 330 325 329 319 316 328 316 320 320 306 283 295 299 292 275 280 281 301 311 324 326 315 311 296 299 310 321 330 329 326 303 287
328 331 333 335 337 336 11 347 356 353 346 324 326 323 330 329 318 325 338 313 308 292 335 323 327 327 327 333 330 324 330 322 321 322 310 299 300 295 298 294 297 306 304 299
326 329 331 332 332 332 350 349 339 8 354 6 338 332 337 337 321 312 329 305 301 332 344 347 1 8 359 343 351 343 356 354 340 334 310 306 302 294 290 288 278 299 290 306
326 328 331 331 331 331 335 347 333 359 2 15 332 341 340 343 336 331 328 313 321 339 352 1 11 19 360 343 336 330 336 339 338 332 324 309 305 294 289 279 280 289 289 285
327 328 328 330 331 332 337 343 337 346 346 244 3 6 7 323 348 341 327 326 343 345 349 354 355 358 358 352 345 344 339 335 335 338 329 316 305 296 289 284 293 294 293 286
322 326 326 326 328 330 332 336 322 322 356 354 335 225 222 128 119 21 13 13 3 1 350 354 358 354 356 359 358 352 344 349 341 347 345 329 301 302 303 298 292 300 298 301
316 317 321 323 325 328 333 332 327 335 335 307 340 349 337 16 107 92 359 8 15 350 10 2 3 354 357 355 355 351 351 357 354 349 348 345 333 311 317 310 297 291 296 312
312 314 318 321 322 322 327 332 334 341 338 331 327 332 310 327 338 357 74 22 354 347 353 356 1 356 9 355 355 353 350 4 357 356 344 335 337 335 331 325 274 279 333 317
306 310 315 318 319 316 315 331 341 337 341 330 320 294 343 332 342 9 351 353 347 342 340 347 347 354 355 352 351 355 5 6 9 16 12 5 343 321 277 295 327 301 330 296
302 308 313 315 317 316 330 334 343 340 342 330 326 329 332 324 340 27 359 353 353 350 349 345 346 350 347 354 350 6 42 40 47 32 63 75 80 83 195 195 250 267 290 284
299 305 312 315 316 320 321 323 335 335 339 336 324 323 334 336 350 355 354 349 348 348 342 333 341 342 344 333 303 227 1 79 102 54 56 125 166 239 198 218 233 261 269 280
296 302 309 311 312 313 313 325 329 339 339 338 331 325 324 333 338 334 339 337 334 334 336 337 340 341 346 341 344 250 182 135 126 97 109 92 327 307 352 5 308 283 286 288
294 301 307 311 311 311 316 328 340 340 333 331 328 323 325 323 322 331 333 336 331 331 336 342 355 356 6 12 19 43 47 75 88 135 120 90 333 23 333 312 309 307 299 297
293 302 300 298 308 319 324 321 321 323 323 318 311 314 312 322 322 321 326 329 334 333 341 353 360 29 152 133 151 147 78 73 91 68 70 354 343 328 319 323 320 314 313 306
287 288 290 301 315 312 311 310 315 320 315 318 316 318 317 323 316 318 324 324 324 324 328 358 354 353 55 8 143 160 142 91 68 71 49 31 347 331 328 323 316 313 312 313
277 291 297 300 298 298 299 301 312 311 307 313 318 318 322 319 329 320 315 313 315 316 320 329 336 346 345 359 48 95 117 68 46 42 25 13 352 344 336 329 325 320 311 311
277 280 282 286 285 282 289 295 301 303 308 307 308 311 319 316 320 320 319 312 310 320 316 324 333 337 329 343 18 29 36 46 41 29 17 3 350 341 336 331 325 319 312 310
268 267 267 270 279 283 281 283 299 297 304 303 304 294 302 312 313 315 310 310 314 309 309 315 335 338 338 337 357 1 7 29 21 9 357 347 342 338 328 327 323 322 318 309
261 266 267 266 271 287 297 293 286 285 292 296 299 287 291 293 300 305 305 306 304 308 312 322 329 337 344 342 343 351 348 353 351 349 345 343 339 335 327 320 313 314 315 314
263 265 269 275 276 276 283 288 285 292 292 300 297 290 289 287 291 291 294 297 299 309 318 320 322 323 325 334 341 340 337 342 340 335 336 335 330 325 320 317 312 310 311 309
259 261 262 272 284 280 281 293 301 302 288 285 291 286 283 292 287 286 294 294 301 310 316 320 322 319 316 312 313 311 315 319 324 325 320 325 326 322 315 312 311 309 303 302